Location: Marsån
(66.4167°N, 22.2833°E)
Time: 10:57:06
(UTC+00:00)

Cosmos 2322 Rocket - Pass Details

Date: 24 February 2024
Orbit: 834 x 848 km, 71.0° (Epoch: 15 April)

Event Time Altitude Azimuth Distance (km) Brightness Sun altitude
Rises 18:09:08 0° 313° (NW) 3,412 6.5 -17.1°
Reaches altitude 10° 18:11:40 10° 308° (NW) 2,472 5.7 -17.3°
Maximum altitude 18:17:04 48° 236° (SW) 1,091 3.0 -17.8°
Enters shadow 18:22:03 12° 165° (SSE) 2,313 4.2 -18.3°
